Cocoa Beach, FL

9:35 PM EDT on June 25, 2017 (GMT -0400)
Cape Canaveral Air Station Skid Strip

Weather History for KXMR - March, 2013

Change the Weather History Date:

Sunday, March 3, 2013

  Actual Average (KCOF) Record (KCOF)
Temperature  
Mean Temperature 48 °F -  
Max Temperature 55 °F 72 °F 87 °F (2001)
Min Temperature 40 °F 59 °F 40 °F (2013)
Degree Days  
Heating Degree Days 18    
Moisture  
Dew Point 30 °F    
Average Humidity 54    
Maximum Humidity 68    
Minimum Humidity 37    
Precipitation  
Precipitation 0.00 in - - ()
Sea Level Pressure  
Sea Level Pressure 30.04 in    
Wind  
Wind Speed 13 mph (WNW)    
Max Wind Speed 23 mph    
Max Gust Speed 32 mph    
Visibility 10 miles    
Events      
Averages and records for this station are not official NWS values.
T = Trace of Precipitation, MM = Missing Value Source: NWS Daily Summary

Daily Weather History Graph

Daily Weather History Graph

Search for Another Location

Airport or City:

Trip Planner

Search our weather history database for the weather conditions in past years. The results will help you decide how hot, cold, wet, or windy it might be!

Date:

Astronomy

Mar. 03, 2013 Rise Set
Actual Time 6:44 AM EST 6:23 PM EST
Civil Twilight 6:21 AM EST 6:47 PM EST
Nautical Twilight 5:53 AM EST 7:14 PM EST
Astronomical Twilight 5:26 AM EST 7:42 PM EST
Moon No Moon Rise 10:31 AM EST (3/3)
Length of Visible Light 12h 26m
Length of Day
11h 38m
Waning Gibbous, 64% of the Moon is Illuminated
Mar 3
Waning Gibbous
Mar 4
Last Quarter
Mar 11
New
Mar 19
First Quarter
Mar 27
Full

Hourly Weather History & Observations

Time (EST) Temp. Windchill Dew Point Humidity Pressure Visibility Wind Dir Wind Speed Gust Speed Precip Events Conditions
12:55 AM 44.1 °F 38.6 °F 33.1 °F 65% 30.02 in 10.0 mi WNW 10.4 mph - N/A   Scattered Clouds
1:55 AM 42.3 °F 35.9 °F 29.1 °F 60% 30.01 in 10.0 mi NW 11.5 mph - N/A   Clear
2:55 AM 41.5 °F 35.4 °F 28.9 °F 61% 29.99 in 10.0 mi NW 10.4 mph - N/A   Clear
3:55 AM 40.6 °F 33.0 °F 29.1 °F 64% 30.00 in 10.0 mi NW 13.8 mph 20.7 mph N/A   Clear
4:55 AM 40.1 °F 33.6 °F 29.5 °F 66% 30.00 in 10.0 mi NW 10.4 mph - N/A   Clear
5:55 AM 40.1 °F 34.1 °F 29.8 °F 67% 30.01 in 10.0 mi NW 9.2 mph 17.3 mph N/A   Clear
6:55 AM 40.3 °F 33.4 °F 30.4 °F 68% 30.03 in 10.0 mi NW 11.5 mph 19.6 mph N/A   Clear
7:55 AM 41.7 °F 35.2 °F 30.0 °F 63% 30.04 in 10.0 mi NW 11.5 mph - N/A   Clear
8:55 AM 44.4 °F 37.5 °F 30.2 °F 57% 30.06 in 10.0 mi NNW 15.0 mph 23.0 mph N/A   Mostly Cloudy
9:55 AM 48.0 °F - 26.1 °F 42% 30.06 in 10.0 mi WNW 17.3 mph 23.0 mph N/A   Clear
10:55 AM 48.9 °F - 28.8 °F 46% 30.05 in 10.0 mi WNW 16.1 mph 24.2 mph N/A   Clear
11:55 AM 52.7 °F - 30.4 °F 42% 30.04 in 10.0 mi WNW 23.0 mph 32.2 mph N/A   Clear
12:55 PM 53.6 °F - 29.7 °F 40% 30.01 in 10.0 mi NW 18.4 mph 32.2 mph N/A   Partly Cloudy
1:55 PM 54.9 °F - 29.5 °F 38% 29.99 in 10.0 mi NW 17.3 mph 31.1 mph N/A   Clear
2:55 PM 55.4 °F - 29.7 °F 37% 29.99 in 10.0 mi West 17.3 mph 23.0 mph N/A   Scattered Clouds
3:55 PM 54.7 °F - 29.1 °F 38% 29.99 in 10.0 mi West 18.4 mph 25.3 mph N/A   Partly Cloudy
4:55 PM 53.2 °F - 28.8 °F 39% 30.00 in 10.0 mi WNW 19.6 mph - N/A   Scattered Clouds
5:55 PM 50.0 °F - 29.5 °F 45% 30.03 in 10.0 mi WNW 12.7 mph 20.7 mph N/A   Partly Cloudy
6:55 PM 48.2 °F - 29.3 °F 48% 30.06 in 10.0 mi WNW 12.7 mph - N/A   Clear
7:55 PM 46.9 °F - 30.9 °F 54% 30.09 in 10.0 mi West 9.2 mph - N/A   Clear
8:55 PM 46.4 °F 41.1 °F 30.9 °F 55% 30.11 in 10.0 mi WNW 11.5 mph - N/A   Clear
9:55 PM 45.3 °F 39.7 °F 32.0 °F 60% 30.13 in 10.0 mi WNW 11.5 mph - N/A   Clear
10:55 PM 44.1 °F 37.7 °F 32.4 °F 63% 30.15 in 10.0 mi WNW 12.7 mph 18.4 mph N/A   Clear
11:55 PM 42.8 °F 37.0 °F 32.5 °F 67% 30.17 in 10.0 mi WNW 10.4 mph - N/A   Clear